Regional Weather Roundup
Issued by NWS

Home | Current Version | Previous Version | Text Only | Print | Product List | Glossary Off
Versions: 1 2 3 4 5 6 7 8 9 10 11 12 13 14 15 16 17 18 19 20 21 22 23 24 25 26 27 28 29 30 31 32 33 34 35 36 37 38 39 40 41 42 43 44 45 46 47 48 49 50

000
ASUS43 KOAX 260602
RWRNE

WEATHER ROUNDUP FOR NEBRASKA
NATIONAL WEATHER SERVICE OMAHA NE
100 AM CDT WED JUL 26 2017

NOTES: SATELLITE DATA IS BEING USED TO AUGMENT CLOUD COVER ABOVE
       12000 FEET.
       "FAIR" INDICATES FEW OR NO CLOUDS BELOW 12,000 FEET WITH NO
       SIGNIFICANT WEATHER AND/OR OBSTRUCTIONS TO VISIBILITY.


NEZ001>004-019>022-054>056-260700-
NEBRASKA PANHANDLE

CITY           SKY/WX    TMP DP  RH WIND       PRES   REMARKS
SCOTTSBLUFF    PTCLDY    76  60  57 N14G23    30.07R
6HR MIN TEMP:  76; 6HR MAX TEMP:  90; 6HR PCP: TRACE;

ALLIANCE       CLOUDY    70  64  81 N21G26    30.06R
6HR MIN TEMP:  70; 6HR MAX TEMP:  93; 6HR PCP:  0.07;

CHADRON        CLOUDY    76  56  49 NE14      30.07R
6HR MIN TEMP:  76; 6HR MAX TEMP:  88;

GORDON         CLOUDY    71  67  85 NE13      30.07R
6HR MIN TEMP:  71; 6HR MAX TEMP:  87;

KIMBALL        CLOUDY    71  58  64 NW13      30.13R
SIDNEY         CLOUDY    74  60  61 N16       30.05R
6HR MIN TEMP:  74; 6HR MAX TEMP:  93;

$$

NEZ057>060-069>072-079>082-260700-
SOUTHWEST NEBRASKA

CITY           SKY/WX    TMP DP  RH WIND       PRES   REMARKS
NORTH PLATTE   CLOUDY    76  70  82 N8        29.93S
6HR MIN TEMP:  75; 6HR MAX TEMP:  97; 6HR PCP: TRACE;

IMPERIAL       CLOUDY    73  61  65 W9        29.93F
6HR MIN TEMP:  72; 6HR MAX TEMP:  98; 6HR PCP: TRACE;

LEXINGTON      CLOUDY    82  68  60 SW24G33   29.98R THUNDER
MCCOOK         CLOUDY    81  68  64 E6        29.90F
6HR MIN TEMP:  80; 6HR MAX TEMP:  99; 6HR PCP: TRACE;

OGALLALA       CLOUDY    80  60  49 E6        29.94R
$$

NEZ005>010-023>029-035>040-094-260700-
NORTH CENTRAL NEBRASKA

CITY           SKY/WX    TMP DP  RH WIND       PRES   REMARKS
VALENTINE      CLOUDY    72  66  81 SE6       30.02R
6HR MIN TEMP:  71; 6HR MAX TEMP:  79; 6HR PCP:  0.12;

AINSWORTH      RAIN      66  66  99 SE13      30.02R
BROKEN BOW     CLOUDY    79  66  64 NW17      29.96R
6HR MIN TEMP:  79; 6HR MAX TEMP:  93;

O`NEILL        LGT RAIN  69  69 100 NE13      30.01F
ORD            CLOUDY    72  65  78 NE22G30   29.95R
6HR MIN TEMP:  72; 6HR MAX TEMP:  92;

THEDFORD       LGT RAIN  68  67  96 NE13G18   29.99F
$$

NEZ041-046>049-061>064-073>077-083>087-260700-
SOUTH CENTRAL NEBRASKA

CITY           SKY/WX    TMP DP  RH WIND       PRES   REMARKS
GRAND ISLAND   CLOUDY    80  69  69 SE17G25   29.91F
6HR MIN TEMP:  80; 6HR MAX TEMP:  91;

AURORA         CLOUDY    80  69  69 S15G23    29.93F
HASTINGS       CLOUDY    82  65  56 S14       29.93F
6HR MIN TEMP:  82; 6HR MAX TEMP:  91;

HEBRON         MOCLDY    83  69  62 S10       29.95F
HOLDREGE       CLOUDY    80  64  58 SE10G16   29.91F
KEARNEY        CLOUDY    80  66  62 S16       29.91F
YORK           CLOUDY    81  72  74 S13       29.94F
$$

NEZ011>018-030>034-042>045-260700-
NORTHEAST NEBRASKA

CITY           SKY/WX    TMP DP  RH WIND       PRES   REMARKS
NORFOLK        CLOUDY    81  67  62 N12       29.95R
6HR MIN TEMP:  81; 6HR MAX TEMP:  92;

ALBION         CLOUDY    79  67  66 N20G31    29.97R
BLAIR          CLOUDY    83  72  67 SE13G18   29.98S
COLUMBUS       CLOUDY    84  70  62 SE18      29.92F
FREMONT        CLOUDY    82  69  66 SE10G17   29.96F
TEKAMAH        CLOUDY    80  72  76 SE9       29.95F
6HR MIN TEMP:  80; 6HR MAX TEMP:  91;

WAYNE          CLOUDY    83  71  66 N12G18    29.97R
$$

NEZ050>053-065>068-078-088>093-260700-
SOUTHEAST NEBRASKA

CITY           SKY/WX    TMP DP  RH WIND       PRES   REMARKS
LINCOLN        MOCLDY    83  69  62 S15       29.96F
6HR MIN TEMP:  83; 6HR MAX TEMP:  93;

OMAHA EPPLEY   CLOUDY    83  75  77 SE15      29.97S HX  90
6HR MIN TEMP:  83; 6HR MAX TEMP:  92;

BEATRICE       PTCLDY    82  70  67 SE12      29.97F
FALLS CITY     PTCLDY    77  73  87 SE7       30.00S
6HR MIN TEMP:  76; 6HR MAX TEMP:  92;

NEBRASKA CITY  CLOUDY    78  75  90 SE9       30.00S
PLATTSMOUTH    MOCLDY    80  73  81 SE10      29.99S
$$

NEZ044-045-051>053-067-260700-
OMAHA AREA

CITY           SKY/WX    TMP DP  RH WIND       PRES   REMARKS
OMAHA EPPLEY   CLOUDY    83  75  77 SE15      29.97S HX  90
6HR MIN TEMP:  83; 6HR MAX TEMP:  92;

BLAIR          CLOUDY    83  72  67 SE13G18   29.98S
FREMONT        CLOUDY    82  69  66 SE10G17   29.96F
MILLARD        CLOUDY    83  74  76 SE7       29.98S
PLATTSMOUTH    MOCLDY    80  73  81 SE10      29.99S
WAHOO          FAIR      78  69  74 SE8       29.96F
$$




USA.gov is the U.S. government's official web portal to all federal, state and local government web resources and services.